CW7218 Weather Reports


Display with metric or nautical units.
time (UTC)temp
F
wind
direction
speed
MPH
gust
MPH
rain 1hr
in
rain 24hr
in
rain mn
in
humidity
%
barometer
mb
20260906235018 74 23 3.0 6.0 0.00 0.00 0.00 43 1025.0
20260906234018 74 45 7.0 10.0 0.00 0.00 0.00 44 1025.0
20260906233018 74 45 7.0 9.0 0.00 0.00 0.00 44 1025.0
20260906232018 75 45 7.0 10.0 0.00 0.00 0.00 42 1025.0
20260906231018 75 45 7.0 9.0 0.00 0.00 0.00 42 1025.1
20260906230018 75 45 6.0 9.0 0.00 0.00 0.00 43 1025.2
20260906225018 76 45 7.0 10.0 0.00 0.00 0.00 42 1025.2
20260906224039 76 45 5.0 8.0 0.00 0.00 0.00 40 1025.1
20260906223018 76 45 6.0 8.0 0.00 0.00 0.00 41 1025.2
20260906222018 77 45 6.0 9.0 0.00 0.00 0.00 41 1025.1
20260906221018 78 23 4.0 8.0 0.00 0.00 0.00 39 1025.1
20260906220017 77 45 5.0 9.0 0.00 0.00 0.00 40 1025.1
20260906215017 78 45 4.0 7.0 0.00 0.00 0.00 42 1025.0
20260906214018 78 45 6.0 10.0 0.00 0.00 0.00 42 1024.9
20260906213018 79 45 6.0 9.0 0.00 0.00 0.00 40 1025.0
20260906212017 79 45 5.0 8.0 0.00 0.00 0.00 39 1025.0
20260906211018 80 45 4.0 9.0 0.00 0.00 0.00 37 1025.1
20260906210017 80 45 5.0 9.0 0.00 0.00 0.00 41 1025.2
20260906205017 81 338 4.0 6.0 0.00 0.00 0.00 35 1025.0
20260906204017 81 338 4.0 6.0 0.00 0.00 0.00 35 1024.9
20260906203017 81 338 5.0 8.0 0.00 0.00 0.00 35 1024.9
20260906202017 82 0 4.0 7.0 0.00 0.00 0.00 36 1024.8
20260906201057 83 0 4.0 7.0 0.00 0.00 0.00 32 1024.6
20260906200057 83 0 3.0 7.0 0.00 0.00 0.00 33 1024.5
20260906195017 83 0 3.0 6.0 0.00 0.00 0.00 33 1024.3
20260906194017 83 338 4.0 8.0 0.00 0.00 0.00 32 1024.1
20260906193017 84 338 3.0 8.0 0.00 0.00 0.00 33 1024.1
20260906192017 85 315 2.0 7.0 0.00 0.00 0.00 33 1023.7
20260906191017 85 338 1.0 4.0 0.00 0.00 0.00 33 1023.7
20260906190017 86 0.0 3.0 0.00 0.00 0.00 33 1023.6
20260906185017 86 338 1.0 3.0 0.00 0.00 0.00 33 1023.4
20260906184017 87 0.0 2.0 0.00 0.00 0.00 35 1023.3
20260906183017 88 113 1.0 3.0 0.00 0.00 0.00 36 1023.2
20260906182017 88 158 2.0 6.0 0.00 0.00 0.00 35 1023.0
20260906181017 88 0 5.0 12.0 0.00 0.00 0.00 34 1022.9
20260906180017 90 135 3.0 9.0 0.00 0.00 0.00 32 1022.9
20260906175017 92 248 1.0 5.0 0.00 0.00 0.00 25 1022.8
20260906174017 92 248 2.0 4.0 0.00 0.00 0.00 22 1022.7
20260906173017 93 270 4.0 8.0 0.00 0.00 0.00 21 1022.9
20260906172017 93 248 8.0 13.0 0.00 0.00 0.00 20 1022.9
20260906171037 94 0 6.0 12.0 0.00 0.00 0.00 20 1023.0
20260906170017 94 0 7.0 13.0 0.00 0.00 0.00 19 1022.8
20260906165017 95 248 9.0 16.0 0.00 0.00 0.00 19 1022.7
20260906164016 95 248 11.0 18.0 0.00 0.00 0.00 19 1022.7
20260906163017 95 225 9.0 19.0 0.00 0.00 0.00 19 1022.6
20260906162017 95 0 10.0 17.0 0.00 0.00 0.00 19 1022.5
20260906161057 96 0 11.0 21.0 0.00 0.00 0.00 18 1022.6
20260906160016 96 0 7.0 17.0 0.00 0.00 0.00 18 1022.6
20260906155016 96 225 9.0 17.0 0.00 0.00 0.00 19 1022.8
20260906154016 95 0 7.0 15.0 0.00 0.00 0.00 20 1022.7
20260906153017 95 0 10.0 19.0 0.00 0.00 0.00 19 1022.7
20260906152016 96 225 7.0 15.0 0.00 0.00 0.00 20 1022.7
20260906151038 96 248 7.0 13.0 0.00 0.00 0.00 19 1022.7
20260906150018 96 248 11.0 18.0 0.00 0.00 0.00 19 1022.8
20260906145018 97 225 9.0 23.0 0.00 0.00 0.00 19 1022.9
20260906144018 97 0 9.0 19.0 0.00 0.00 0.00 19 1023.0
20260906143039 97 0 10.0 20.0 0.00 0.00 0.00 18 1023.0
20260906142018 97 0 13.0 22.0 0.00 0.00 0.00 19 1022.8
20260906141018 96 225 14.0 22.0 0.00 0.00 0.00 19 1022.8
20260906140019 97 0 14.0 24.0 0.00 0.00 0.00 19 1022.8
20260906135018 97 0 11.0 18.0 0.00 0.00 0.00 19 1022.9
20260906134038 97 0 13.0 21.0 0.00 0.00 0.00 20 1023.1
20260906133038 97 0 14.0 23.0 0.00 0.00 0.00 20 1023.3
20260906132018 97 225 12.0 22.0 0.00 0.00 0.00 19 1023.3
20260906131018 97 0 13.0 22.0 0.00 0.00 0.00 20 1023.3
20260906130018 96 0 15.0 27.0 0.00 0.00 0.00 20 1023.3
20260906125018 97 0 10.0 18.0 0.00 0.00 0.00 20 1023.3
20260906124058 96 225 10.0 19.0 0.00 0.00 0.00 21 1023.3
20260906123018 97 0 10.0 20.0 0.00 0.00 0.00 21 1023.5
20260906122018 96 0 12.0 22.0 0.00 0.00 0.00 21 1023.5
20260906121058 96 0 12.0 19.0 0.00 0.00 0.00 21 1023.7
20260906120018 96 0 13.0 19.0 0.00 0.00 0.00 21 1023.5
20260906115038 94 225 6.0 19.0 0.00 0.00 0.00 23 1023.4
20260906114038 93 113 3.0 10.0 0.00 0.00 0.00 32 1023.7
20260906113018 92 23 2.0 5.0 0.00 0.00 0.00 34 1023.7
20260906112018 92 135 3.0 6.0 0.00 0.00 0.00 36 1023.9
20260906111018 91 113 2.0 5.0 0.00 0.00 0.00 36 1024.0
20260906110018 90 135 3.0 7.0 0.00 0.00 0.00 37 1024.2
20260906105018 90 0 3.0 6.0 0.00 0.00 0.00 37 1024.2
20260906104038 90 0 2.0 5.0 0.00 0.00 0.00 39 1024.3
20260906103018 89 135 3.0 6.0 0.00 0.00 0.00 39 1024.4
20260906102018 88 0 3.0 7.0 0.00 0.00 0.00 40 1024.4
20260906101018 87 0 5.0 9.0 0.00 0.00 0.00 41 1024.4
20260906100018 87 0 4.0 7.0 0.00 0.00 0.00 40 1024.4
20260906095017 87 158 2.0 8.0 0.00 0.00 0.00 39 1024.6
20260906094038 86 0 2.0 6.0 0.00 0.00 0.00 39 1024.5
20260906093018 86 0 2.0 5.0 0.00 0.00 0.00 40 1024.4
20260906092037 85 0 2.0 4.0 0.00 0.00 0.00 42 1024.5
20260906091018 85 0 2.0 4.0 0.00 0.00 0.00 43 1024.5
20260906090019 85 158 1.0 4.0 0.00 0.00 0.00 43 1024.5
20260906085017 84 180 1.0 3.0 0.00 0.00 0.00 46 1024.6
20260906084018 84 180 1.0 3.0 0.00 0.00 0.00 46 1024.5
20260906083018 83 68 1.0 3.0 0.00 0.00 0.00 47 1024.3
20260906082038 81 90 2.0 3.0 0.00 0.00 0.00 46 1024.3
20260906081017 80 90 2.0 7.0 0.00 0.00 0.00 47 1024.2
20260906080017 79 68 2.0 5.0 0.00 0.00 0.00 49 1024.1
20260906075017 78 90 4.0 7.0 0.00 0.00 0.00 50 1024.1
20260906074017 77 90 4.0 7.0 0.00 0.00 0.00 50 1024.0
20260906073017 77 90 3.0 8.0 0.00 0.00 0.00 51 1024.0
20260906072017 76 68 4.0 7.0 0.00 0.00 0.00 52 1024.0
20260906071017 75 45 4.0 7.0 0.00 0.00 0.00 51 1024.0
20260906070017 75 45 4.0 7.0 0.00 0.00 0.00 52 1024.1
20260906065017 74 45 5.0 8.0 0.00 0.00 0.00 51 1024.1
20260906064017 73 45 4.0 6.0 0.00 0.00 0.00 53 1024.1
20260906063017 73 45 5.0 7.0 0.00 0.00 0.00 52 1024.1
20260906062017 72 45 3.0 6.0 0.00 0.00 0.00 55 1024.0
20260906061017 72 45 4.0 7.0 0.00 0.00 0.00 55 1024.0
20260906060017 71 68 3.0 6.0 0.00 0.00 0.00 56 1024.0
20260906055017 70 45 3.0 5.0 0.00 0.00 0.00 57 1024.0
20260906054017 70 45 3.0 7.0 0.00 0.00 0.00 59 1023.9
20260906053017 70 45 3.0 6.0 0.00 0.00 0.00 58 1023.9
20260906052017 71 45 5.0 7.0 0.00 0.00 0.00 58 1023.9
20260906051017 71 45 5.0 8.0 0.00 0.00 0.00 56 1023.8
20260906050016 72 45 3.0 8.0 0.00 0.00 0.00 56 1023.8
20260906045017 72 68 4.0 6.0 0.00 0.00 0.00 55 1023.9
20260906044037 72 45 4.0 8.0 0.00 0.00 0.00 53 1023.9
20260906043017 72 45 4.0 6.0 0.00 0.00 0.00 55 1024.0
20260906042117 72 23 3.0 5.0 0.00 0.00 0.00 55 1024.0
20260906041016 72 45 4.0 7.0 0.00 0.00 0.00 56 1024.0
20260906040017 72 45 4.0 6.0 0.00 0.00 0.00 56 1024.0
20260906035017 72 90 1.0 4.0 0.00 0.00 0.00 57 1024.2
20260906034017 72 45 3.0 8.0 0.00 0.00 0.00 56 1024.2
20260906033018 73 45 5.0 7.0 0.00 0.00 0.00 56 1024.4
20260906032016 74 45 3.0 6.0 0.00 0.00 0.00 54 1024.6
20260906031017 74 0 1.0 3.0 0.00 0.00 0.00 54 1024.6
20260906030017 73 315 2.0 4.0 0.00 0.00 0.00 57 1024.5
20260906025016 72 23 3.0 8.0 0.00 0.00 0.00 58 1024.4
20260906024016 72 23 6.0 9.0 0.00 0.00 0.00 60 1024.4
20260906023016 73 23 7.0 10.0 0.00 0.00 0.00 58 1024.4
20260906022016 73 45 7.0 10.0 0.00 0.00 0.00 58 1024.6
20260906021016 73 45 6.0 11.0 0.00 0.00 0.00 59 1024.7
20260906020016 73 45 6.0 9.0 0.00 0.00 0.00 58 1024.8
20260906015016 73 45 6.0 9.0 0.00 0.00 0.00 58 1024.8
20260906014018 73 45 4.0 6.0 0.00 0.00 0.00 59 1024.8
20260906013018 73 45 6.0 9.0 0.00 0.00 0.00 59 1024.8
20260906012018 73 45 5.0 8.0 0.00 0.00 0.00 58 1024.9
20260906011018 73 45 3.0 6.0 0.00 0.00 0.00 58 1024.9
20260906010018 73 45 4.0 6.0 0.00 0.00 0.00 59 1024.9
20260906005018 74 45 5.0 8.0 0.00 0.00 0.00 58 1025.1
20260906004018 74 45 2.0 6.0 0.00 0.00 0.00 56 1025.0
20260906003018 74 45 3.0 5.0 0.00 0.00 0.00 57 1025.1
20260906002038 74 45 5.0 7.0 0.00 0.00 0.00 57 1025.1
20260906001018 75 45 5.0 7.0 0.00 0.00 0.00 57 1025.2
20260906000037 75 45 4.0 7.0 0.00 0.00 0.00 57 1025.3